| time (UTC) | temp F | wind direction | speed MPH | gust MPH | rain 1hr in | rain 24hr in | rain mn in | humidity % | barometer mb |
| 20260510043132 | 56 | 360 | 0.0 | 0.0 | 0.00 | 0.00 | 0.00 | 31 | 1016.7 |
| 20260510041553 | 57 | 360 | 0.0 | 0.0 | 0.00 | 0.00 | 0.00 | 26 | 1016.7 |
| 20260510040036 | 58 | 360 | 0.0 | 0.0 | 0.00 | 0.00 | 0.00 | 28 | 1016.6 |
| 20260510034539 | 59 | 360 | 0.0 | 0.0 | 0.00 | 0.00 | 0.00 | 24 | 1016.5 |
| 20260510033036 | 60 | 360 | 0.0 | 0.0 | 0.00 | 0.00 | 0.00 | 23 | 1016.2 |
| 20260510031600 | 61 | 360 | 0.0 | 0.0 | 0.00 | 0.00 | 0.00 | 20 | 1015.9 |
| 20260510030037 | 63 | 360 | 0.0 | 0.0 | 0.00 | 0.00 | 0.00 | 20 | 1015.6 |
| 20260510024537 | 65 | 360 | 0.0 | 0.0 | 0.00 | 0.00 | 0.00 | 19 | 1015.4 |
| 20260510023043 | 67 | 360 | 0.0 | 0.0 | 0.00 | 0.00 | 0.00 | 15 | 1015.3 |
| 20260510021532 | 68 | 22 | 0.0 | 0.0 | 0.00 | 0.00 | 0.00 | 14 | 1015.1 |
| 20260510020018 | 69 | 13 | 0.0 | 0.0 | 0.00 | 0.00 | 0.00 | 15 | 1015.1 |
| 20260510014520 | 70 | 35 | 0.0 | 0.0 | 0.00 | 0.00 | 0.00 | 12 | 1015.0 |
| 20260510013018 | 71 | 314 | 0.0 | 0.0 | 0.00 | 0.00 | 0.00 | 14 | 1015.1 |
| 20260510011523 | 71 | 312 | 0.0 | 0.0 | 0.00 | 0.00 | 0.00 | 12 | 1015.2 |
| 20260510010023 | 71 | 308 | 0.0 | 0.0 | 0.00 | 0.00 | 0.00 | 13 | 1015.1 |
| 20260510004516 | 72 | 355 | 1.0 | 0.0 | 0.00 | 0.00 | 0.00 | 14 | 1015.1 |
| 20260510003016 | 72 | 281 | 0.0 | 0.0 | 0.00 | 0.00 | 0.00 | 13 | 1015.2 |
| 20260510001517 | 72 | 321 | 0.0 | 0.0 | 0.00 | 0.00 | 0.00 | 14 | 1015.3 |
| 20260510000004 | 72 | 351 | 1.0 | 0.0 | 0.00 | 0.00 | 0.00 | 14 | 1015.2 |
| 20260509234503 | 72 | 51 | 2.0 | 0.0 | 0.00 | 0.00 | 0.00 | 14 | 1015.1 |
| 20260509233004 | 74 | 32 | 0.0 | 0.0 | 0.00 | 0.00 | 0.00 | 14 | 1015.1 |
| 20260509231501 | 74 | 141 | 1.0 | 0.0 | 0.00 | 0.00 | 0.00 | 13 | 1015.2 |
| 20260509230100 | 73 | 355 | 1.0 | 0.0 | 0.00 | 0.00 | 0.00 | 13 | 1015.2 |
| 20260509224616 | 73 | 57 | 1.0 | 0.0 | 0.00 | 0.00 | 0.00 | 15 | 1015.0 |
| 20260509223059 | 73 | 70 | 2.0 | 0.0 | 0.00 | 0.00 | 0.00 | 16 | 1015.0 |
| 20260509221558 | 73 | 26 | 2.0 | 0.0 | 0.00 | 0.00 | 0.00 | 18 | 1015.0 |
| 20260509220047 | 73 | 291 | 1.0 | 0.0 | 0.00 | 0.00 | 0.00 | 17 | 1015.1 |
| 20260509214543 | 73 | 332 | 1.0 | 0.0 | 0.00 | 0.00 | 0.00 | 17 | 1015.4 |
| 20260509213057 | 72 | 337 | 0.0 | 0.0 | 0.00 | 0.00 | 0.00 | 17 | 1015.5 |
| 20260509211606 | 72 | 355 | 1.0 | 0.0 | 0.00 | 0.00 | 0.00 | 18 | 1015.5 |
| 20260509210040 | 72 | 38 | 1.0 | 0.0 | 0.00 | 0.00 | 0.00 | 21 | 1015.5 |
| 20260509204551 | 71 | 333 | 2.0 | 0.0 | 0.00 | 0.00 | 0.00 | 17 | 1015.7 |
| 20260509203042 | 71 | 34 | 1.0 | 0.0 | 0.00 | 0.00 | 0.00 | 18 | 1015.7 |
| 20260509201535 | 70 | 78 | 2.0 | 0.0 | 0.00 | 0.00 | 0.00 | 18 | 1015.7 |
| 20260509200023 | 70 | 53 | 2.0 | 0.0 | 0.00 | 0.00 | 0.00 | 19 | 1015.7 |
| 20260509194518 | 69 | 344 | 2.0 | 0.0 | 0.00 | 0.00 | 0.00 | 20 | 1015.9 |
| 20260509193016 | 68 | 5 | 3.0 | 0.0 | 0.00 | 0.00 | 0.00 | 18 | 1016.0 |
| 20260509191513 | 67 | 26 | 2.0 | 0.0 | 0.00 | 0.00 | 0.00 | 19 | 1016.1 |
| 20260509190016 | 67 | 5 | 3.0 | 0.0 | 0.00 | 0.00 | 0.00 | 16 | 1016.2 |
| 20260509184511 | 67 | 336 | 3.0 | 0.0 | 0.00 | 0.00 | 0.00 | 16 | 1016.3 |
| 20260509183018 | 67 | 56 | 3.0 | 0.0 | 0.00 | 0.00 | 0.00 | 18 | 1016.3 |
| 20260509181509 | 66 | 30 | 3.0 | 0.0 | 0.00 | 0.00 | 0.00 | 19 | 1016.3 |
| 20260509180050 | 65 | 65 | 4.0 | 0.0 | 0.00 | 0.00 | 0.00 | 18 | 1016.2 |
| 20260509174552 | 65 | 325 | 3.0 | 0.0 | 0.00 | 0.00 | 0.00 | 17 | 1016.2 |
| 20260509173030 | 65 | 17 | 3.0 | 0.0 | 0.00 | 0.00 | 0.00 | 16 | 1016.0 |
| 20260509171529 | 64 | 87 | 3.0 | 0.0 | 0.00 | 0.00 | 0.00 | 15 | 1016.0 |
| 20260509170016 | 65 | 35 | 2.0 | 0.0 | 0.00 | 0.00 | 0.00 | 14 | 1016.0 |
| 20260509164515 | 65 | 78 | 2.0 | 0.0 | 0.00 | 0.00 | 0.00 | 15 | 1016.0 |
| 20260509163013 | 64 | 36 | 2.0 | 0.0 | 0.00 | 0.00 | 0.00 | 15 | 1016.1 |
| 20260509161514 | 63 | 22 | 1.0 | 0.0 | 0.00 | 0.00 | 0.00 | 16 | 1016.2 |
| 20260509160011 | 64 | 342 | 1.0 | 0.0 | 0.00 | 0.00 | 0.00 | 15 | 1016.2 |
| 20260509154509 | 63 | 29 | 1.0 | 0.0 | 0.00 | 0.00 | 0.00 | 18 | 1016.1 |
| 20260509153016 | 63 | 280 | 1.0 | 0.0 | 0.00 | 0.00 | 0.00 | 17 | 1016.1 |
| 20260509151504 | 62 | 267 | 1.0 | 0.0 | 0.00 | 0.00 | 0.00 | 20 | 1016.1 |
| 20260509150049 | 60 | 304 | 1.0 | 0.0 | 0.00 | 0.00 | 0.00 | 27 | 1016.0 |
| 20260509144546 | 56 | 5 | 0.0 | 0.0 | 0.00 | 0.00 | 0.00 | 28 | 1016.0 |
| 20260509143050 | 55 | 347 | 0.0 | 0.0 | 0.00 | 0.00 | 0.00 | 44 | 1016.0 |
| 20260509141546 | 54 | 347 | 0.0 | 0.0 | 0.00 | 0.00 | 0.00 | 48 | 1015.9 |
| 20260509140048 | 53 | 336 | 0.0 | 0.0 | 0.00 | 0.00 | 0.00 | 44 | 1015.8 |
| 20260509134551 | 52 | 335 | 0.0 | 0.0 | 0.00 | 0.00 | 0.00 | 49 | 1015.7 |
| 20260509133046 | 52 | 335 | 0.0 | 0.0 | 0.00 | 0.00 | 0.00 | 49 | 1015.4 |
| 20260509131536 | 53 | 335 | 0.0 | 0.0 | 0.00 | 0.00 | 0.00 | 45 | 1015.2 |
| 20260509130023 | 53 | 335 | 0.0 | 0.0 | 0.00 | 0.00 | 0.00 | 45 | 1015.1 |
| 20260509124522 | 54 | 334 | 0.0 | 0.0 | 0.00 | 0.00 | 0.00 | 42 | 1014.8 |
| 20260509123018 | 54 | 360 | 0.0 | 0.0 | 0.00 | 0.00 | 0.00 | 42 | 1014.5 |
| 20260509121516 | 55 | 345 | 1.0 | 0.0 | 0.00 | 0.00 | 0.00 | 42 | 1014.4 |
| 20260509120016 | 55 | 5 | 2.0 | 0.0 | 0.00 | 0.00 | 0.00 | 41 | 1014.1 |
| 20260509114512 | 55 | 10 | 2.0 | 0.0 | 0.00 | 0.00 | 0.00 | 42 | 1014.0 |
| 20260509113013 | 55 | 355 | 2.0 | 0.0 | 0.00 | 0.00 | 0.00 | 43 | 1013.9 |
| 20260509111509 | 56 | 320 | 1.0 | 0.0 | 0.00 | 0.00 | 0.00 | 42 | 1013.9 |
| 20260509110109 | 56 | 71 | 1.0 | 0.0 | 0.00 | 0.00 | 0.00 | 40 | 1013.7 |
| 20260509104601 | 56 | 30 | 1.0 | 0.0 | 0.00 | 0.00 | 0.00 | 42 | 1013.7 |
| 20260509103055 | 56 | 26 | 1.0 | 0.0 | 0.00 | 0.00 | 0.00 | 45 | 1013.7 |
| 20260509101556 | 57 | 22 | 1.0 | 0.0 | 0.00 | 0.00 | 0.00 | 46 | 1013.6 |
| 20260509100108 | 57 | 220 | 1.0 | 0.0 | 0.00 | 0.00 | 0.00 | 46 | 1013.5 |
| 20260509094551 | 57 | 193 | 1.0 | 0.0 | 0.00 | 0.00 | 0.00 | 46 | 1013.4 |
| 20260509093050 | 58 | 347 | 1.0 | 0.0 | 0.00 | 0.00 | 0.00 | 45 | 1013.3 |
| 20260509091550 | 58 | 238 | 1.0 | 0.0 | 0.00 | 0.00 | 0.00 | 46 | 1013.2 |
| 20260509090046 | 58 | 315 | 1.0 | 0.0 | 0.00 | 0.00 | 0.00 | 44 | 1013.0 |
| 20260509084539 | 59 | 319 | 1.0 | 0.0 | 0.00 | 0.00 | 0.00 | 43 | 1013.0 |
| 20260509083035 | 59 | 355 | 0.0 | 0.0 | 0.00 | 0.00 | 0.00 | 40 | 1012.9 |
| 20260509081532 | 59 | 270 | 1.0 | 0.0 | 0.00 | 0.00 | 0.00 | 40 | 1012.9 |
| 20260509080045 | 59 | 338 | 0.0 | 0.0 | 0.00 | 0.00 | 0.00 | 38 | 1012.9 |
| 20260509074529 | 58 | 21 | 0.0 | 0.0 | 0.00 | 0.00 | 0.00 | 39 | 1012.8 |
| 20260509073041 | 57 | 320 | 0.0 | 0.0 | 0.00 | 0.00 | 0.00 | 38 | 1012.8 |
| 20260509071521 | 55 | 9 | 0.0 | 0.0 | 0.00 | 0.00 | 0.00 | 48 | 1012.7 |
| 20260509070020 | 56 | 9 | 0.0 | 0.0 | 0.00 | 0.00 | 0.00 | 48 | 1012.5 |
| 20260509064506 | 57 | 9 | 0.0 | 0.0 | 0.00 | 0.00 | 0.00 | 45 | 1012.4 |
| 20260509063005 | 58 | 9 | 0.0 | 0.0 | 0.00 | 0.00 | 0.00 | 43 | 1012.6 |
| 20260509061505 | 57 | 5 | 0.0 | 0.0 | 0.00 | 0.00 | 0.00 | 40 | 1012.7 |
| 20260509060012 | 57 | 14 | 0.0 | 0.0 | 0.00 | 0.00 | 0.00 | 41 | 1012.7 |
| 20260509054504 | 57 | 21 | 0.0 | 0.0 | 0.00 | 0.00 | 0.00 | 42 | 1012.5 |
| 20260509053010 | 58 | 21 | 0.0 | 0.0 | 0.00 | 0.00 | 0.00 | 41 | 1012.5 |
| 20260509051503 | 59 | 21 | 0.0 | 0.0 | 0.00 | 0.00 | 0.00 | 39 | 1012.3 |
| 20260509050006 | 59 | 21 | 0.0 | 0.0 | 0.00 | 0.00 | 0.00 | 40 | 1012.2 |
| 20260509044545 | 60 | 21 | 0.0 | 0.0 | 0.00 | 0.00 | 0.00 | 39 | 1012.2 |